Flag for U.S.A. Weather past 2 weeks in Grand Prairie, Texas, U.S.A.

48 °F


Feels Like: 45 °F
Forecast: 39 / 53 °F
Wind: 7 mph from Northwest

Location: Grand Prairie Municipal Airport

Current Time: Nov 30, 2015 at 8:34:06 PM

Latest Report: Nov 30, 2015 at 4:50 PM

Visibility: 10 mi

Pressure: 30.03 "Hg

Humidity: 76%

Dew point: 41 °F

Location of Grand PrairieLocation

Historic Weather in Grand Prairie — Graph


Grand Prairie temperature yesterday

Maximum temperature yesterday: 43 °F (at 9:55 PM)
Minimum temperature yesterday: 39 °F (at 4:55 AM)
Average temperature yesterday: 41 °F

Past Weeks' High & Low Weather Summary

High74 °F (Nov 17, 2:55 AM)100% (Nov 16, 2:55 AM)30.38 "Hg (Nov 16, 2:55 AM)
Low34 °F (Nov 22, 7:50 AM)0% (Nov 22, 1:50 PM)29.50 "Hg (Nov 17, 3:35 AM)
Average53 °F75%30.09 "Hg
* Reported Nov 15 4:50 PM — Nov 30 4:50 PM, Grand Prairie, Weather by CustomWeather, © 2015

Note: Actual official high and low records may vary slightly from our data, if they occured in-between our weather recording intervals... More about our weather records


Grand Prairie weather history for previous 24 hours

Time TempWeatherWind HumidityBarometerVisibility
4:50 PM
Mon, Nov 30
48 °FOvercast.7 mph76%30.03 "Hg10 mi
3:50 PM48 °FMostly cloudy.7 mph76%30.03 "Hg10 mi
2:50 PM48 °FScattered clouds.7 mph76%30.01 "Hg10 mi
1:50 PM45 °FOvercast.7 mph100%30.04 "Hg10 mi
12:50 PM45 °FOvercast.7 mph100%30.06 "Hg10 mi
11:50 AM45 °FOvercast.6 mph100%30.08 "Hg10 mi
10:50 AM45 °FFog.5 mph100%30.11 "Hg10 mi
9:50 AM45 °FFog.5 mph100%30.11 "Hg7 mi
8:50 AM43 °FDrizzle. Low clouds.3 mph100%30.09 "Hg2 mi
5:35 AM43 °FLow clouds.6 mph100%30.04 "Hg2 mi
5:15 AM43 °FLow clouds.5 mph100%30.04 "Hg3 mi
4:55 AM43 °FMostly cloudy.5 mph100%30.04 "Hg10 mi
4:35 AM43 °FMostly cloudy.No wind100%30.04 "Hg10 mi
3:55 AM43 °FLow clouds.No wind100%30.04 "Hg10 mi
3:35 AM43 °FLow clouds.No wind100%30.04 "Hg10 mi
3:15 AM43 °FLow clouds.No wind100%30.04 "Hg10 mi
2:55 AM42 °FLow clouds.No wind100%30.05 "Hg10 mi
2:35 AM42 °FLow clouds.No wind100%30.05 "Hg10 mi
2:15 AM42 °FLow clouds.No wind100%30.06 "Hg4 mi
12:55 AM42 °FLow clouds.3 mph100%30.08 "Hg2 mi
12:35 AM42 °FLow clouds.No wind100%30.08 "Hg2 mi
11:55 PM
Sun, Nov 29
42 °FLow clouds.No wind100%30.08 "Hg4 mi
11:15 PM43 °FLow clouds.No wind100%30.10 "Hg3 mi
10:55 PM43 °FLow clouds.3 mph100%30.11 "Hg3 mi
10:15 PM43 °FLow clouds.No wind100%30.11 "Hg4 mi
9:55 PM43 °FOvercast.No wind100%30.11 "Hg10 mi
9:35 PM43 °FMostly cloudy.3 mph100%30.12 "Hg10 mi
9:15 PM43 °FMostly cloudy.No wind100%30.12 "Hg10 mi
8:55 PM43 °FMostly cloudy.3 mph100%30.13 "Hg10 mi
8:35 PM43 °FMostly cloudy.3 mph100%30.13 "Hg10 mi
8:15 PM42 °FLow clouds.3 mph100%30.14 "Hg10 mi
Weather by CustomWeather, © 2015

See weather overviewHow to use our weather pages